Location: *
(37.5724°S, 58.0067°E)
Time: 04:02:30
(UTC+00:00)

CZ-4 R/B - Pass Details

Date: 26 January 2021
Orbit: 531 x 598 km, 97.7° (Epoch: 07 March)

Event Time Altitude Azimuth Distance (km) Brightness Sun altitude
Rises 15:52:53 0° 174° (S) 2,881 5.3 -5.8°
Reaches altitude 10° 15:55:06 10° 178° (S) 1,972 4.5 -6.2°
Maximum altitude 15:59:18 54° 254° (WSW) 744 2.5 -6.9°
Drops below altitude 10° 16:03:25 10° 331° (NNW) 1,939 4.1 -7.6°
Sets 16:05:36 0° 335° (NNW) 2,828 4.9 -8.0°
